Theta_e
334 339 344 348 347 347 347 346 345 345 343 342 342 341 340 339 339 338 338 338 338 338 337 337 340 342 343 341 340 339 339 339 338 338 339 341 341 341 340 338 338 332 337
335 341 344 347 348 349 349 347 346 345 344 343 343 343 342 341 340 340 339 339 339 339 339 339 338 339 340 342 341 340 339 338 337 336 335 339 339 337 336 336 336 334 337
334 340 344 345 347 349 349 347 347 345 344 344 344 343 343 343 343 343 342 341 341 341 342 342 341 340 340 340 342 341 339 339 337 335 334 336 336 335 335 337 337 337 337
334 340 341 343 346 348 349 347 347 346 345 345 344 344 345 345 345 346 344 343 344 344 344 345 343 342 341 340 340 339 337 335 335 336 337 336 335 335 335 338 338 338 338
334 340 339 343 347 349 349 347 347 346 346 345 346 346 344 344 344 344 342 341 342 341 341 339 338 336 335 335 334 334 333 332 330 333 336 336 336 337 337 338 339 339 340
336 340 340 343 347 349 348 347 347 346 347 347 346 344 342 341 339 338 337 337 336 336 335 334 333 330 329 329 329 326 324 323 326 334 334 335 334 333 335 336 337 339 340
337 340 342 341 345 348 348 348 347 347 347 347 343 341 340 337 335 334 333 332 332 331 330 329 327 326 326 323 321 320 317 316 317 322 322 322 322 321 324 328 332 333 335
338 340 342 337 340 344 345 346 345 345 345 342 340 338 336 333 331 330 329 328 327 326 326 325 323 321 319 318 316 314 312 312 310 312 313 313 315 317 319 320 322 324 326
339 340 341 342 340 335 338 339 340 340 340 339 336 333 332 330 328 327 325 324 324 325 322 321 319 316 315 314 313 311 309 309 310 310 309 310 315 317 319 320 321 322 323
337 338 339 341 340 339 337 331 332 333 334 334 332 328 326 324 325 324 323 323 322 321 320 318 316 313 312 311 310 309 308 309 310 309 310 311 313 317 319 320 320 321 322
334 335 337 338 338 337 335 329 326 327 328 327 325 321 318 319 318 317 318 321 320 318 318 316 313 310 308 308 307 306 306 310 309 309 310 311 312 316 318 319 320 320 321
330 330 333 333 333 333 331 326 326 324 325 325 322 319 318 315 315 313 314 317 317 317 316 313 310 307 305 309 309 307 309 309 309 309 309 309 311 314 316 318 319 319 320
330 331 330 330 331 331 331 329 328 326 326 324 321 318 315 312 312 312 312 311 312 312 310 309 307 309 309 309 308 308 308 308 308 308 307 306 309 313 316 317 318 319 319
325 329 332 331 330 331 331 326 326 323 322 320 319 316 313 311 311 311 309 309 311 308 309 309 309 309 308 307 307 307 307 307 307 308 305 305 308 312 315 315 315 316 316
321 324 327 331 331 330 326 323 321 318 317 315 314 312 311 311 311 310 310 309 309 309 309 308 308 307 307 307 306 306 306 306 307 307 308 304 305 309 311 312 312 314 314
320 321 323 324 327 324 321 318 316 314 312 311 311 311 311 311 311 309 309 309 309 309 309 308 307 307 307 306 306 305 305 306 306 305 306 304 305 305 307 308 310 311 311
319 319 319 320 321 319 316 314 312 311 309 309 310 311 310 310 310 309 309 308 308 308 308 307 306 306 306 305 305 305 305 305 304 303 305 306 304 303 302 304 306 307 308
317 317 316 315 316 316 312 311 309 309 309 309 310 310 310 309 309 309 308 308 308 307 306 306 305 305 305 304 304 305 304 304 303 303 304 305 304 304 303 303 302 303 304
314 315 314 315 313 313 310 308 308 308 308 308 309 309 309 309 309 308 307 307 308 307 305 304 304 304 303 303 303 303 305 304 303 302 303 303 303 303 304 302 301 301 301
313 313 314 313 311 311 308 306 307 306 307 308 308 308 308 307 307 307 307 307 306 305 305 304 304 302 303 301 298 299 303 303 303 303 302 301 301 302 303 303 304 302 301
311 311 312 311 310 308 304 302 303 302 305 306 307 307 307 307 307 306 305 305 305 305 304 304 303 301 301 300 299 302 301 301 301 302 302 302 302 301 301 302 302 301 300
309 310 310 310 308 307 304 303 303 303 304 305 305 305 306 306 305 305 305 305 303 304 303 302 301 299 300 298 299 300 298 298 300 300 301 300 301 302 300 301 301 300 300
307 308 307 308 307 306 305 304 304 304 303 302 303 303 304 305 305 305 305 304 303 303 301 301 301 300 298 297 298 297 296 296 296 299 298 299 299 300 300 300 300 300 299
306 308 308 307 306 306 305 303 301 299 298 299 301 301 302 305 305 305 305 304 302 302 301 302 300 300 301 296 297 295 297 297 295 294 298 298 299 298 299 299 299 299 298
305 306 306 306 305 305 304 304 302 300 300 300 300 300 301 303 305 304 303 302 302 301 301 301 299 299 299 299 297 295 295 295 295 293 292 295 297 299 299 298 298 298 297
304 306 307 304 304 304 303 303 302 300 299 299 299 299 300 302 303 303 302 302 302 301 300 299 299 299 298 298 297 296 295 293 292 292 292 293 292 294 297 297 297 297 296
Wind_Speed
10 18 21 20 20 20 19 18 16 15 15 14 13 12 12 11 10 10 9 8 6 5 5 6 6 7 7 6 6 7 7 7 7 7 6 6 6 6 6 6 7 6 7
14 19 20 20 20 19 19 17 16 15 15 14 13 12 11 11 10 10 9 8 7 5 5 5 6 7 7 6 5 5 6 7 6 5 2 6 7 5 5 6 6 7 5
16 19 20 18 18 18 18 18 16 16 15 14 12 11 10 10 10 10 9 8 7 6 6 6 7 7 6 7 7 5 6 6 4 2 4 7 6 5 4 5 6 6 6
15 17 19 17 18 17 17 17 16 16 15 14 13 12 12 11 11 12 10 7 9 7 8 11 10 10 8 8 8 8 5 3 2 3 7 1 3 8 3 6 7 7 6
16 16 17 18 17 16 18 17 16 14 14 14 14 13 11 10 10 12 11 8 8 9 9 7 8 7 7 6 4 5 3 2 3 6 4 3 4 9 5 7 9 9 7
16 16 18 19 16 15 18 16 16 15 14 15 15 13 12 8 10 11 10 9 8 8 8 7 8 8 7 6 6 5 4 3 6 8 4 4 4 9 8 8 9 8 9
16 15 17 17 16 16 18 18 17 16 15 13 14 14 13 10 10 11 10 10 9 9 9 8 8 8 7 6 5 4 5 6 7 4 3 3 7 9 7 8 9 9 11
16 15 16 15 13 15 18 18 16 14 14 15 14 14 13 12 11 11 10 10 9 9 9 8 8 7 6 5 5 4 4 7 6 3 2 2 8 7 6 7 8 9 9
15 14 14 17 15 11 11 12 13 13 13 14 14 12 12 11 10 11 10 10 10 10 9 9 7 6 5 4 4 3 3 5 7 3 4 1 9 7 6 6 7 8 8
15 15 15 16 14 11 10 11 12 12 12 12 13 12 11 8 7 8 8 9 10 10 10 9 7 6 5 5 3 2 2 7 3 1 1 6 7 7 7 6 7 7 8
13 14 16 14 13 11 10 10 11 11 11 11 12 12 11 8 9 10 5 9 10 9 9 9 7 6 5 5 3 1 5 0 2 1 1 7 6 6 5 6 6 6 7
19 17 15 13 13 11 10 10 9 9 9 11 11 12 9 8 8 8 7 6 7 8 9 7 6 5 6 3 5 6 2 2 2 1 5 6 5 5 5 5 5 6 7
18 16 15 12 11 11 9 10 7 7 8 9 13 11 8 7 6 6 6 5 5 6 6 7 6 5 1 1 1 1 0 2 1 0 8 6 5 4 4 5 5 6 7
21 21 20 18 14 14 11 10 10 9 8 8 10 12 7 6 7 7 6 7 6 5 5 5 3 3 3 3 2 1 1 1 0 1 7 7 4 4 4 5 5 6 8
20 20 21 20 19 16 15 10 10 9 8 9 9 12 9 8 7 7 6 6 6 5 5 5 4 4 3 3 2 2 2 1 0 0 2 8 3 3 4 5 6 6 8
19 20 20 21 18 18 15 15 10 9 10 9 9 10 11 8 7 7 7 6 6 6 5 4 5 4 3 2 3 3 2 1 1 0 1 6 6 3 4 5 5 6 8
19 20 21 20 19 18 17 13 10 10 10 10 9 12 12 10 9 8 6 6 6 5 6 4 4 3 3 3 3 2 3 3 2 3 3 3 7 6 2 3 4 6 9
19 20 19 17 20 19 16 13 10 10 10 9 9 9 13 12 11 8 6 6 5 5 5 4 4 3 2 2 2 2 3 3 2 4 4 3 2 1 6 4 2 5 9
21 20 20 21 21 20 17 12 12 13 10 9 9 8 12 11 10 8 6 6 7 5 4 5 4 2 3 2 2 2 2 2 4 4 5 3 3 2 1 7 5 6 5
20 20 20 18 20 19 13 11 10 9 10 9 9 9 13 10 11 8 7 7 6 5 5 4 4 3 1 1 2 2 1 2 3 3 4 3 2 2 3 2 2 2 5
19 20 22 22 22 17 13 13 12 12 10 9 9 13 14 11 12 10 7 7 7 6 5 6 4 5 3 1 2 3 3 3 4 3 2 2 3 4 2 2 3 3 4
21 21 20 22 23 20 15 14 12 11 9 9 9 11 13 13 12 11 10 8 7 6 7 6 6 3 2 1 0 1 3 3 3 4 2 2 2 1 3 4 5 4 4
20 22 23 23 22 21 19 13 11 10 8 9 10 9 9 10 12 12 11 9 9 6 6 7 6 5 4 2 1 1 2 2 1 3 5 3 2 3 4 5 5 5 4
19 18 19 21 22 21 21 18 20 18 14 11 13 10 12 15 14 12 11 10 9 7 7 6 5 5 3 4 2 2 2 3 1 2 3 4 2 4 4 4 4 4 4
15 15 17 19 20 22 23 21 17 17 11 8 9 14 12 12 12 12 12 11 10 7 7 8 6 5 4 3 2 3 1 1 2 2 2 2 3 2 2 3 4 4 4
11 13 14 19 20 20 21 22 22 21 17 13 13 12 11 10 10 12 12 10 10 8 9 8 8 7 5 3 3 3 3 3 2 3 2 3 5 4 4 4 4 3 3
Wind_Direction
161 151 166 175 177 178 175 176 175 174 174 172 167 161 157 156 153 149 146 142 140 134 123 111 99 92 86 102 100 94 95 89 84 81 87 91 86 80 65 46 353 17 29
158 152 167 174 177 180 176 176 175 176 178 176 172 167 165 163 162 161 159 159 157 154 143 132 119 107 97 99 101 106 107 105 96 91 116 147 116 80 53 30 11 10 359
162 155 170 174 177 182 178 173 175 179 180 180 178 180 178 180 184 177 171 174 176 179 176 168 149 121 108 97 86 116 106 91 93 100 273 235 122 93 29 13 356 359 358
166 159 174 171 178 183 182 172 174 180 181 181 181 194 196 201 207 209 177 176 203 192 133 123 110 105 100 89 83 88 97 78 45 263 246 285 308 121 30 344 336 330 336
170 167 173 168 176 182 177 172 172 180 181 188 169 157 131 130 127 118 132 124 119 117 114 110 110 105 85 80 71 75 69 46 319 272 294 304 354 75 20 329 312 329 348
171 175 147 166 178 183 169 171 173 182 187 179 165 154 139 149 122 128 132 137 137 127 123 122 108 100 102 98 86 62 33 344 291 258 299 102 281 26 356 318 316 326 333
173 177 156 166 177 181 174 174 177 185 188 172 150 146 132 147 150 143 144 144 140 138 133 126 120 116 112 103 88 56 13 333 300 300 319 339 43 15 339 335 331 332 332
177 179 167 170 173 170 172 180 180 174 154 145 146 142 150 163 160 154 152 150 148 145 136 132 126 123 120 108 95 68 19 333 270 295 324 321 43 351 341 346 339 337 332
178 180 173 180 182 156 154 142 140 143 150 150 146 147 164 163 163 159 155 158 155 143 144 137 132 125 119 101 88 71 27 319 299 7 317 342 31 348 350 352 349 343 343
182 180 185 176 170 160 150 138 139 142 142 144 147 151 141 138 144 138 143 162 157 152 148 141 137 133 128 116 94 48 316 277 291 321 301 50 12 348 349 351 352 349 344
188 189 183 173 173 167 158 145 139 140 138 134 132 132 140 172 174 159 141 147 157 159 153 148 147 142 158 151 147 238 283 7 316 22 32 49 1 346 350 355 356 355 350
194 195 193 179 172 164 163 147 152 150 161 173 172 170 182 174 179 191 131 137 156 157 154 155 158 175 210 185 169 195 249 352 277 360 69 49 358 345 352 9 6 7 3
201 192 194 181 176 170 175 169 177 171 179 183 184 183 196 174 157 157 153 164 169 175 178 186 185 210 172 250 166 214 6 272 320 44 86 55 3 0 17 36 30 20 14
203 200 191 190 185 185 187 182 182 178 185 182 187 184 176 172 177 181 178 183 187 187 194 198 186 177 192 191 218 273 217 277 7 31 105 79 24 16 39 43 32 17 11
207 200 196 196 190 188 189 187 185 184 186 188 182 184 180 184 178 180 186 177 191 189 195 187 185 193 197 213 209 238 238 194 218 88 92 104 64 45 31 34 26 26 12
209 203 197 200 195 189 190 184 182 186 180 184 180 181 188 183 179 183 179 185 185 191 187 192 188 195 202 214 220 220 227 226 169 158 206 128 124 77 30 18 17 23 11
212 203 197 194 194 195 190 187 182 182 179 182 181 178 183 185 183 183 179 179 184 185 182 179 189 199 214 202 231 213 232 190 212 181 181 153 149 150 89 15 32 11 356
216 206 199 194 195 195 190 186 181 180 181 180 181 175 180 184 180 179 177 182 162 169 187 194 187 203 223 206 242 219 218 168 197 182 182 168 137 176 153 117 10 342 342
213 203 198 192 196 193 189 183 181 181 183 180 179 177 179 181 176 174 173 176 167 174 180 186 174 227 201 214 249 267 229 195 180 175 174 184 141 223 238 162 197 256 318
216 205 196 188 193 188 183 181 180 179 183 180 179 179 174 176 176 175 173 164 176 179 170 189 166 165 246 335 284 265 199 176 182 183 186 199 150 200 209 293 272 307 327
214 206 201 188 186 181 183 180 178 182 182 179 182 177 175 174 172 176 167 167 182 186 173 174 165 166 169 140 256 169 139 174 194 189 204 192 169 184 306 269 295 322 310
211 205 201 196 188 186 181 182 179 174 181 175 174 180 175 178 173 174 168 174 179 181 171 168 173 144 113 155 294 1 185 161 197 203 235 249 207 252 278 264 289 290 296
207 201 202 196 189 187 183 174 173 165 157 178 183 173 175 164 173 176 175 169 175 175 174 179 181 173 155 145 67 326 189 194 159 144 216 235 256 263 288 289 297 291 290
210 206 203 195 190 185 181 181 181 176 174 188 180 173 166 177 180 180 173 173 169 176 169 181 176 184 160 161 139 132 19 351 206 199 205 219 233 268 277 293 290 301 291
204 206 199 199 192 186 185 186 184 183 183 167 172 168 171 175 178 173 172 170 173 176 168 172 164 177 185 154 155 149 151 71 40 266 263 290 306 239 300 308 303 280 281
211 202 198 198 196 190 189 191 190 184 176 167 168 170 173 168 171 177 175 175 173 172 169 169 170 178 176 172 145 185 178 166 175 201 233 275 318 279 312 293 292 285 289